Lexington Weather

Lexington, Massachusetts, USA

26°F
12/12/2019 5:27pm 
  • Lexington Conditions: Partly cloudy
  • Temperature: 25.7°F / -3.5°CColder 2.0°F than last hour.
  • Dew Point: 19.8°FDecreased 0.3°Fsince last hour.
  • Relative Humidity: 78%Increased 5.0% since last hour.
  • Wind: Wind from WSW WSW Calm, 10-min avg: 1 mph, gust: 2 mph
  • Barometer: 30.67 in Steady
  • Visibility: 10 miles
  • Snow Today: 0.0 in
  •   

Regional Weather Roundup
for Boston / Norton, MA

        
000
ASUS41 KBOX 110900
RWRBOX

REGIONAL WEATHER ROUNDUP
NATIONAL WEATHER SERVICE BOSTON/NORTON MA
400 AM EST WED DEC 11 2019

NOTE:  "FAIR" INDICATES FEW OR NO CLOUDS BELOW 12,000 FEET WITH NO 
SIGNIFICANT WEATHER AND/OR OBSTRUCTIONS TO VISIBILITY.

MAZALL-111000-
EASTERN MASSACHUSETTS
  
CITY           SKY/WX    TMP DP  RH WIND       PRES   REMARKS
BOSTON         LGT SNOW  34  28  79 NW20G29   30.15R WCI  23          
BEVERLY        LGT SNOW  32  29  88 NW12      30.13R VSB 1   WCI  23  
LAWRENCE       LGT SNOW  31  29  92 NW8       30.15S FOG     WCI  23  
BEDFORD        LGT SNOW  32  28  85 NW12      30.14R FOG     WCI  23  
BLUE HILL        N/A     30  29  96 NW12G26   30.10R WCI  20          
NORWOOD        LGT SNOW  35  29  78 N9        30.15R WCI  28          
MARSHFIELD     NOT AVBL                                               
PLYMOUTH       LGT SNOW  34  32  92 NW12G22   30.12R FOG     WCI  25  
TAUNTON        LGT SNOW  36  32  85 NW10G17   30.13R FOG     WCI  28  
NEW BEDFORD    LGT RAIN  36  34  92 VRB3      30.11R                  
$$

MAZALL-111000-
CAPE COD AND THE ISLANDS
  
CITY           SKY/WX    TMP DP  RH WIND       PRES   REMARKS
FALMOUTH       NOT AVBL                                               
HYANNIS        CLOUDY    40  37  89 NW8       30.08R                  
CHATHAM        LGT RAIN N/A N/A N/A NW5       30.10R                  
PROVINCETOWN   LGT RAIN  36  34  92 N22G29    30.12R FOG     WCI  25  
NANTUCKET      LGT RAIN  41  38  89 N13       30.09R                  
MARTHAS VNYRD  LGT RAIN  39  37  92 NW8       30.10R FOG              
$$
 
MAZALL-111000-
CENTRAL AND WESTERN MASSACHUSETTS
  
CITY           SKY/WX    TMP DP  RH WIND       PRES   REMARKS
WORCESTER      LGT SNOW  28  25  88 NW12      30.08S FOG     WCI  18  
FITCHBURG      LGT SNOW  31  29  92 VRB3      30.13F VSB 3/4          
ORANGE         CLOUDY    32  24  72 NW6       30.12S WCI  26          
SPRINGFIELD    MIX PCPN  31  26  80 NW9       30.17R WCI  23          
WESTFIELD      FLURRIES  32  27  81 CALM      30.17R                  
NORTH ADAMS    CLOUDY    30  16  56 W10       30.13S WCI  21          
PITTSFIELD     CLOUDY    27  19  72 W9        30.12R WCI  18          
$$
 
RIZALL-111000-
RHODE ISLAND
  
CITY           SKY/WX    TMP DP  RH WIND       PRES   REMARKS
PROVIDENCE     LGT SNOW  34  33  96 W7        30.14R FOG     WCI  28  
NEWPORT        LGT SNOW  36  33  89 NW10      30.11S FOG     WCI  28  
BLOCK ISLAND   LGT RAIN  35  33  92 N14       30.14R WCI  26          
SMITHFIELD     LGT SNOW  32  32 100 N9        30.13R FOG     WCI  24  
WESTERLY       LGT SNOW  36  31  82 NW10      30.15R WCI  28          
$$
 
CTZALL-111000-
CONNECTICUT
  
CITY           SKY/WX    TMP DP  RH WIND       PRES   REMARKS
BRADLEY INTL   LGT SNOW  32  29  88 N14G21    30.18R VSB 3/4 WCI  22  
HARTFORD       SNOW      33  31  92 N7        30.18R VSB 1/2 WCI  27  
BRIDGEPORT     LGT SNOW  34  31  88 N8        30.17R FOG     WCI  27  
DANBURY        SNOW      30  28  92 NE9       30.17R VSB 1/2 WCI  22  
GROTON         NOT AVBL                                               
NEW HAVEN      LGT SNOW  36  32  85 N10       30.16R FOG     WCI  28  
CHESTER        LGT SNOW  34  32  93 CALM      30.15R                  
MERIDEN        LGT SNOW  32  30  92 N5        30.16S VSB 1   WCI  27  
WILLIMANTIC    LGT SNOW  33  30  88 N15       30.19R FOG     WCI  23  
OXFORD         LGT SNOW  29  28  96 N15       30.13R VSB 3/4 WCI  18  
$$

MEZ002-015-021-024-NHZ003-005-008-011-012-014-VTZ005-008-111000-
NORTHERN NEW ENGLAND
  
CITY           SKY/WX    TMP DP  RH WIND       PRES   REMARKS
PORTLAND ME    LGT SNOW  34  30  85 SE5       30.10R FOG     WCI  30  
BANGOR ME      CLOUDY    32  16  51 NW14G20   30.05R WCI  22          
CONCORD NH     CLOUDY    34  15  46 W13       30.09R WCI  25          
MANCHESTER NH  CLOUDY    33  27  78 SW5       30.11R WCI  29          
NASHUA NH      FLURRIES  32  28  85 NW15G21   30.14S WCI  22          
PORTSMOUTH NH  LGT SNOW  32  31  95 W8        30.10R FOG     WCI  25  
JAFFREY NH     CLOUDY    30  24  78 VRB6      30.08R WCI  24          
KEENE NH       CLOUDY    31  22  69 NW5       30.12R WCI  26          
BURLINGTON VT  FAIR      22   8  55 N8        30.22R WCI  12          
MT. WASHINGTON NOT AVBL                                               
$$

NYZ052-076-111000-
EASTERN NEW YORK
  
CITY           SKY/WX    TMP DP  RH WIND       PRES   REMARKS
ALBANY         CLOUDY    30  16  56 W10       30.19F WCI  21          
NEW YORK CITY  FLURRIES  36  32  85 NW12      30.19R WCI  28          
$$
 
ANZALL-111000-
MARINE OBSERVATIONS
  
STATION/POSITION TIME  TEMP    WIND        PRES    VSBY  WAVE
                       AIR SEA DIR/SP/G                  HT/PER
                 (UTC) (F)     (DEG/KT/KT) (MB)    (MI)  (FT/S)
BOSTON BUOY      0750   37 47  330/ 19/ 23 1017.9          4/11
BUZZARDS BAY     0800   39     350/ 17/ 19 1019.0R
NANTUCKET SOUND  0810   40 43                N/A
MASS BAY-STELLWA 0804   36 46  340/ 19/ 25 1017.4R  1 7/8
ISLE OF SHOALS   0800   33     300/ 18/ 20 1018.2R
S OF BLOCK IS    0830      53                N/A           7/10
$$

......................KEY.........................
  SKY/WX - SKY CONDITION/PRESENT WEATHER
  TMP    - TEMPERATURE IN FAHRENHEIT
  DWPT   - DEWPOINT IN FAHRENHEIT
  RH     - RELATIVE HUMIDITY IN PERCENT
  WIND   - DIRECTION AND SPEED IN MPH
  PRES   - MEAN SEA LEVEL PRESSURE IN INCHES OF HG
  WCI    - WIND CHILL INDEX
  VSB    - VISIBILITY IN MILES
  HX     - HEAT INDEX
  TC     - TEMPERATURE IN CELSIUS
  VRB    - VARIABLE WIND DIRECTION
  N/A    - NOT AVAILABLE
  
      

Other recent Regional Weather Roundups

Thu Dec 12, 5:10pm

Thu Dec 12, 5:00pm

Thu Dec 12, 4:10pm

Thu Dec 12, 4:01pm

Thu Dec 12, 3:10pm

Thu Dec 12, 3:00pm

Thu Dec 12, 2:10pm

Thu Dec 12, 2:01pm

Thu Dec 12, 1:10pm

Thu Dec 12, 1:00pm

Thu Dec 12, 12:10pm

Thu Dec 12, 12:00pm

Thu Dec 12, 11:10am

Thu Dec 12, 11:00am

Thu Dec 12, 10:10am

Thu Dec 12, 8:10am

Thu Dec 12, 8:00am

Thu Dec 12, 7:10am

Thu Dec 12, 7:00am

Thu Dec 12, 6:10am

Thu Dec 12, 6:00am

Thu Dec 12, 5:10am

Thu Dec 12, 5:00am

Thu Dec 12, 4:10am

Thu Dec 12, 4:00am

Thu Dec 12, 3:10am

Thu Dec 12, 3:00am

Thu Dec 12, 2:10am

Thu Dec 12, 2:00am

Thu Dec 12, 1:10am

Thu Dec 12, 1:00am

Thu Dec 12, 12:10am

Thu Dec 12, 12:00am

Wed Dec 11, 11:10pm

Wed Dec 11, 11:00pm

Wed Dec 11, 10:10pm

Wed Dec 11, 10:00pm

Wed Dec 11, 9:10pm

Wed Dec 11, 9:00pm

Wed Dec 11, 8:10pm

Wed Dec 11, 8:00pm

Wed Dec 11, 7:10pm

Wed Dec 11, 7:00pm

Wed Dec 11, 6:10pm

Wed Dec 11, 6:00pm

Wed Dec 11, 5:10pm

Wed Dec 11, 5:01pm

Wed Dec 11, 4:10pm

Wed Dec 11, 4:00pm

Wed Dec 11, 3:10pm

Wed Dec 11, 3:01pm

Wed Dec 11, 2:10pm

Wed Dec 11, 2:00pm

Wed Dec 11, 1:10pm

Wed Dec 11, 1:00pm

Wed Dec 11, 12:10pm

Wed Dec 11, 12:00pm

Wed Dec 11, 11:10am

Wed Dec 11, 11:00am

Wed Dec 11, 10:10am

Wed Dec 11, 10:00am

Wed Dec 11, 9:10am

Wed Dec 11, 9:00am

Wed Dec 11, 8:10am

Wed Dec 11, 8:00am

Wed Dec 11, 7:10am

Wed Dec 11, 7:00am

Wed Dec 11, 6:10am

Wed Dec 11, 6:00am

Wed Dec 11, 5:10am

Wed Dec 11, 5:00am

Wed Dec 11, 4:10am

Wed Dec 11, 3:10am

Wed Dec 11, 3:01am

Wed Dec 11, 2:10am

Wed Dec 11, 2:01am

Wed Dec 11, 1:10am

Wed Dec 11, 1:00am

Wed Dec 11, 12:10am

Wed Dec 11, 12:00am

Tue Dec 10, 11:10pm

Tue Dec 10, 11:00pm

Tue Dec 10, 10:10pm

Tue Dec 10, 10:00pm

Tue Dec 10, 9:10pm

Tue Dec 10, 9:01pm

Tue Dec 10, 8:10pm

Tue Dec 10, 8:00pm

Tue Dec 10, 7:10pm

Tue Dec 10, 7:01pm

Tue Dec 10, 6:10pm

Tue Dec 10, 6:01pm

Tue Dec 10, 5:10pm

Tue Dec 10, 5:00pm

Tue Dec 10, 4:10pm

Tue Dec 10, 4:01pm

Tue Dec 10, 3:10pm

Tue Dec 10, 3:01pm

Tue Dec 10, 2:10pm

Tue Dec 10, 2:01pm

Tue Dec 10, 1:10pm

Tue Dec 10, 1:00pm

Tue Dec 10, 12:10pm

Tue Dec 10, 12:00pm

Tue Dec 10, 11:10am

Tue Dec 10, 11:00am

Tue Dec 10, 10:10am

Tue Dec 10, 10:00am

Tue Dec 10, 9:10am

Tue Dec 10, 9:01am

Tue Dec 10, 8:10am

Tue Dec 10, 8:00am

Tue Dec 10, 7:10am

Tue Dec 10, 7:00am

Tue Dec 10, 6:10am

Tue Dec 10, 6:00am

Tue Dec 10, 5:10am

Tue Dec 10, 5:00am

Tue Dec 10, 4:10am

Tue Dec 10, 4:00am

Tue Dec 10, 3:10am

Tue Dec 10, 3:00am

Tue Dec 10, 2:10am

Tue Dec 10, 2:01am

Tue Dec 10, 1:10am

Tue Dec 10, 1:00am

Tue Dec 10, 12:10am

Tue Dec 10, 12:01am

Mon Dec 9, 11:10pm

Mon Dec 9, 11:01pm

Mon Dec 9, 10:10pm

Mon Dec 9, 10:00pm

Mon Dec 9, 9:10pm

Mon Dec 9, 9:01pm

Mon Dec 9, 8:10pm

Mon Dec 9, 8:01pm

Mon Dec 9, 7:10pm

Mon Dec 9, 7:00pm

Mon Dec 9, 6:10pm

Mon Dec 9, 6:00pm

Meta data:

ID: 77079a60-ab5e-457a-bf14-82825a5458d0
Link: https://api.weather.gov/products/77079a60-ab5e-457a-bf14-82825a5458d0